Wind_Speed
11 12 12 13 13 12 11 10 10 10 9 9 8 8 8 7 6 5 4 3 1 1 2 3 3 4 4 5 6 7 7 8 8 8 8 8 9 9 9 9 10 10 11
9 10 11 11 11 10 10 10 8 9 8 7 7 7 7 7 7 6 5 4 2 1 1 2 3 4 5 6 6 7 7 7 8 9 9 9 10 10 10 10 10 11 10
6 7 9 10 9 9 8 8 7 7 7 6 6 6 6 6 6 5 4 4 3 3 3 3 4 5 6 6 6 7 8 8 9 10 10 10 10 11 11 11 11 11 11
7 7 8 9 8 8 7 6 6 5 5 5 5 5 4 4 4 4 4 4 3 3 3 4 4 4 6 6 6 6 7 8 9 10 10 11 11 11 11 12 12 12 12
8 8 8 8 8 7 7 6 5 5 4 5 4 3 3 3 3 3 3 3 3 3 3 4 5 5 5 5 6 7 7 8 8 8 9 11 12 12 12 13 13 13 13
9 9 9 9 8 7 7 6 6 6 5 4 5 4 4 4 4 4 3 3 3 4 4 4 5 5 5 5 6 7 7 7 8 8 9 10 12 12 12 13 13 14 14
12 10 10 11 10 9 9 9 8 7 6 6 5 5 6 5 5 5 5 5 5 5 5 5 6 6 7 6 7 7 8 8 8 9 10 11 11 12 13 13 14 14 14
13 12 12 13 12 11 12 11 10 9 8 7 7 7 7 6 6 6 7 7 7 7 7 7 8 8 8 8 8 8 8 9 9 10 11 11 12 12 13 14 15 14 14
13 13 13 14 14 14 13 13 12 12 11 10 9 9 8 9 9 8 8 8 8 8 9 9 10 10 10 10 9 10 10 10 11 11 12 13 13 13 14 15 15 16 16
15 15 15 16 16 15 15 14 14 14 14 13 13 11 11 11 11 11 10 10 10 10 11 11 11 11 11 12 12 12 12 13 13 14 14 15 15 14 14 15 15 15 15
16 17 18 18 17 17 17 16 17 16 16 16 15 14 14 14 14 14 14 13 12 13 13 14 13 13 13 13 14 15 15 15 15 15 15 16 16 16 16 17 16 16 16
18 18 19 20 19 19 18 18 19 20 19 18 18 17 18 19 18 17 16 16 15 15 15 16 15 15 15 15 16 16 16 17 17 17 17 17 16 16 17 17 17 17 18
21 21 22 22 22 22 21 21 21 21 20 21 20 19 20 21 21 21 20 19 18 18 18 18 18 18 18 18 18 18 18 18 18 18 19 19 19 19 19 18 19 19 20
23 23 24 23 23 23 23 23 24 24 23 22 21 21 21 22 24 24 23 23 21 21 20 20 20 20 21 21 21 21 21 20 20 20 21 21 21 20 20 19 19 20 21
25 25 25 26 26 26 25 25 25 24 23 23 23 23 23 23 24 25 25 24 23 22 22 21 21 22 22 23 23 24 23 23 23 23 23 23 22 22 22 22 22 22 22
27 27 27 27 28 28 27 26 25 26 26 26 26 26 27 26 26 26 26 26 25 24 23 23 24 24 24 25 25 25 25 25 25 25 25 24 24 24 24 24 24 24 24
28 28 28 28 29 30 30 29 28 28 28 29 29 28 29 28 28 27 27 27 27 26 26 26 26 26 25 25 26 26 27 27 27 27 27 27 26 26 26 26 26 26 26
30 31 31 31 31 32 31 31 31 31 30 30 30 30 30 30 30 29 29 30 30 30 30 29 28 28 28 28 27 28 28 28 28 27 28 28 29 29 29 29 29 29 29
34 34 34 34 34 34 33 33 33 32 31 31 30 30 31 31 32 32 32 32 32 32 32 32 31 30 30 31 30 30 29 29 28 28 29 30 30 31 32 32 32 32 32
35 37 37 37 36 36 34 34 34 33 33 33 33 32 32 32 32 34 34 34 33 33 33 33 33 33 32 32 32 32 31 30 30 30 31 32 33 33 34 33 32 32 33
37 38 39 39 38 37 37 37 36 35 35 35 34 34 34 34 35 35 35 35 34 35 34 34 34 34 33 33 33 34 33 32 31 32 33 34 35 35 35 34 33 32 33
39 39 39 40 40 40 40 40 38 36 35 36 37 37 37 38 38 37 36 37 36 36 35 35 35 36 36 35 34 35 35 35 34 34 34 34 35 35 35 34 34 34 34
40 40 40 40 41 41 40 40 38 38 38 38 38 39 38 39 39 38 37 36 36 37 37 37 36 37 37 36 36 36 36 35 35 35 35 35 35 34 34 34 34 34 34
40 41 42 41 41 41 41 41 40 40 40 40 39 38 38 38 38 38 37 37 37 38 38 37 37 38 37 37 37 36 36 36 35 35 35 34 35 34 34 34 33 34 34
40 41 41 41 41 42 42 42 42 42 41 41 41 39 39 37 37 36 37 38 38 39 38 37 38 38 37 37 37 36 36 35 35 35 35 35 35 35 35 35 35 36 36
39 40 40 41 40 40 41 41 42 42 41 40 40 39 38 37 37 38 38 38 38 37 38 37 36 37 37 37 37 37 36 36 36 36 36 36 36 36 36 37 37 37 37
Wind_Direction
15 18 18 22 25 28 33 43 48 52 55 58 58 57 62 67 73 73 80 81 126 205 216 233 246 250 251 245 246 250 249 250 247 251 252 250 250 251 256 256 259 266 266
9 10 11 11 15 19 24 32 37 46 49 52 53 53 56 61 64 64 55 45 36 350 274 244 256 262 259 253 253 257 249 250 249 252 254 255 254 254 257 259 264 269 269
349 353 358 1 3 7 13 22 27 35 38 43 46 51 51 52 56 56 46 35 31 19 350 318 291 283 265 257 257 257 251 256 256 255 254 256 258 257 260 263 265 266 268
319 324 338 345 349 351 357 5 11 20 24 27 30 39 42 41 39 40 36 26 17 357 332 320 316 299 273 263 266 257 256 261 260 257 257 260 260 260 262 263 264 266 268
303 307 317 325 332 336 340 347 348 356 0 7 12 16 18 15 10 13 11 1 351 340 322 317 318 309 289 275 271 262 263 264 262 262 264 264 264 263 266 265 267 268 270
288 291 298 308 313 313 318 321 324 329 336 343 350 349 342 338 334 334 336 332 336 333 327 319 313 305 294 282 276 271 271 269 268 267 269 270 270 267 265 264 267 270 272
274 276 285 294 299 297 298 299 303 309 318 318 320 329 332 324 317 318 316 314 313 316 317 318 313 302 291 285 283 274 269 268 271 271 270 271 273 273 269 269 272 273 274
270 271 277 285 290 290 289 290 288 291 293 297 299 305 315 309 297 301 304 303 302 303 305 309 309 305 295 287 284 280 274 272 274 275 275 277 275 273 270 272 273 274 277
267 270 271 277 282 281 281 282 282 284 286 284 282 284 293 296 292 291 291 294 294 298 300 301 304 304 297 290 284 281 280 278 277 277 279 280 276 276 275 274 274 275 277
264 265 265 268 276 279 277 272 274 275 276 277 273 272 281 286 287 286 284 284 285 289 292 293 297 300 297 289 284 280 279 284 282 278 279 278 276 277 277 276 275 277 278
265 264 263 265 268 270 271 272 272 272 271 273 274 271 272 276 281 282 285 285 280 282 286 285 288 290 291 290 286 283 280 282 282 282 282 280 281 281 279 277 275 276 276
266 266 265 265 270 272 274 273 276 276 272 271 271 270 272 273 274 278 280 282 280 279 282 284 286 288 289 289 286 285 282 282 282 281 282 283 281 281 282 279 277 276 276
269 268 269 268 269 273 273 272 278 276 270 270 271 271 271 271 270 273 274 276 277 277 278 279 282 285 286 286 285 284 283 282 282 282 282 282 280 280 280 279 279 278 278
268 268 270 270 270 272 272 274 273 274 272 272 270 271 270 269 270 272 274 276 275 272 273 275 277 280 283 285 284 283 283 282 283 284 284 285 282 279 279 281 282 281 279
266 266 267 268 269 271 273 274 275 275 275 272 273 271 270 270 273 275 275 275 272 271 273 274 275 276 278 282 283 281 281 281 281 282 282 281 281 280 279 279 280 281 281
267 269 269 271 270 272 274 273 275 275 275 274 275 275 273 272 275 276 274 272 271 272 272 273 275 275 276 279 282 280 278 279 280 280 280 279 278 278 278 280 280 281 281
269 270 271 272 274 275 275 273 272 273 274 277 276 278 274 275 278 277 275 273 270 271 272 272 275 276 277 279 281 280 277 277 279 278 278 279 279 277 278 279 279 279 280
269 270 271 273 275 277 275 274 275 275 276 277 276 277 275 274 274 277 273 273 273 272 272 272 274 276 275 276 279 281 279 277 278 278 278 278 278 278 277 278 278 279 279
268 269 271 272 275 277 278 277 278 276 277 279 280 279 277 275 276 275 272 272 272 272 273 274 276 275 273 274 277 277 277 276 277 277 277 277 278 276 277 277 278 278 279
265 267 269 271 273 274 276 278 278 278 278 278 279 279 278 278 277 274 272 272 273 273 274 276 276 276 272 272 274 275 274 275 276 276 276 276 276 278 278 276 276 277 278
265 266 268 269 271 271 273 275 275 276 277 276 277 278 278 278 277 274 273 272 272 272 273 275 274 274 273 272 273 273 274 274 275 276 276 277 277 278 278 276 276 277 279
268 269 269 269 270 271 272 274 273 273 275 276 276 277 276 275 276 276 273 271 271 271 272 273 273 272 271 271 270 271 273 273 274 275 276 278 278 277 277 276 276 276 278
268 269 270 270 270 270 272 272 273 274 275 276 276 276 275 275 274 274 273 273 273 272 272 272 272 272 272 271 270 271 272 272 273 273 275 276 277 276 275 276 277 277 277
269 268 269 270 270 270 271 272 273 274 274 275 275 274 274 275 274 273 272 273 273 274 271 270 272 272 272 271 271 271 271 271 272 273 274 274 274 276 276 276 276 277 278
271 270 271 271 272 271 271 272 272 273 275 276 276 275 276 273 274 273 273 273 273 274 273 272 272 272 271 271 271 270 270 271 272 273 274 274 274 274 275 276 277 278 279
271 272 272 271 272 272 272 272 272 273 274 275 275 275 274 273 273 272 270 271 272 273 274 273 272 272 272 272 272 271 270 270 272 273 273 272 273 273 274 275 277 278 278
Height
5899 5897 5896 5894 5893 5891 5889 5887 5886 5885 5884 5883 5882 5881 5880 5880 5880 5880 5879 5879 5879 5879 5879 5880 5880 5880 5880 5880 5881 5881 5882 5882 5883 5883 5884 5885 5885 5886 5886 5887 5887 5887 5887
5899 5898 5896 5895 5894 5892 5891 5889 5887 5886 5885 5884 5883 5882 5881 5881 5881 5881 5880 5880 5879 5879 5879 5879 5879 5879 5879 5879 5879 5880 5880 5880 5881 5882 5882 5883 5884 5884 5884 5884 5885 5885 5885
5899 5898 5897 5896 5894 5893 5891 5890 5889 5887 5886 5885 5884 5883 5883 5882 5882 5882 5881 5880 5880 5879 5879 5878 5878 5878 5878 5878 5878 5878 5878 5879 5879 5880 5880 5881 5881 5881 5882 5882 5882 5882 5882
5898 5898 5897 5895 5894 5893 5892 5891 5890 5888 5887 5886 5885 5884 5883 5883 5883 5882 5881 5881 5880 5879 5879 5878 5877 5876 5876 5876 5876 5876 5877 5877 5877 5877 5878 5879 5879 5879 5879 5879 5879 5879 5879
5897 5897 5896 5894 5893 5892 5892 5891 5890 5889 5887 5886 5885 5885 5884 5883 5883 5882 5881 5881 5880 5879 5878 5878 5877 5876 5875 5875 5875 5875 5875 5875 5875 5875 5875 5876 5876 5876 5876 5876 5877 5877 5877
5896 5895 5894 5893 5892 5891 5891 5890 5889 5888 5887 5886 5885 5884 5883 5883 5882 5882 5881 5880 5879 5879 5878 5877 5876 5875 5874 5874 5873 5873 5873 5873 5873 5873 5873 5873 5873 5873 5873 5873 5873 5873 5874
5893 5893 5892 5891 5890 5890 5889 5888 5888 5887 5886 5885 5884 5884 5883 5882 5881 5881 5880 5880 5879 5878 5877 5876 5875 5874 5873 5873 5872 5872 5871 5871 5871 5871 5871 5870 5870 5870 5870 5870 5870 5870 5870
5890 5890 5889 5889 5888 5888 5887 5887 5886 5885 5884 5883 5882 5882 5881 5880 5879 5879 5879 5878 5877 5877 5876 5875 5874 5873 5872 5871 5871 5870 5870 5869 5868 5868 5868 5867 5867 5867 5866 5866 5866 5866 5866
5886 5886 5886 5886 5885 5885 5884 5884 5883 5882 5881 5881 5880 5879 5879 5878 5877 5877 5877 5876 5876 5875 5875 5874 5872 5871 5870 5869 5869 5868 5868 5867 5866 5865 5865 5864 5863 5863 5863 5863 5862 5863 5862
5882 5882 5882 5882 5881 5881 5880 5880 5879 5879 5878 5877 5876 5876 5876 5876 5875 5874 5874 5874 5873 5873 5872 5872 5870 5869 5868 5867 5866 5866 5865 5864 5863 5862 5861 5861 5860 5859 5859 5858 5858 5858 5858
5877 5878 5877 5877 5877 5876 5876 5875 5874 5874 5874 5873 5872 5873 5873 5872 5872 5871 5871 5870 5870 5869 5869 5868 5867 5866 5865 5864 5863 5863 5862 5861 5860 5859 5858 5857 5856 5856 5855 5855 5854 5853 5853
5871 5872 5872 5872 5872 5872 5871 5871 5870 5870 5869 5869 5868 5868 5869 5868 5868 5867 5867 5866 5866 5865 5865 5864 5864 5863 5862 5861 5859 5859 5858 5857 5856 5855 5854 5853 5852 5852 5851 5850 5849 5849 5849
5866 5866 5867 5867 5867 5866 5866 5866 5865 5864 5864 5863 5863 5863 5863 5863 5862 5862 5862 5861 5861 5861 5860 5860 5859 5858 5858 5857 5856 5854 5853 5852 5851 5850 5849 5848 5848 5847 5846 5845 5844 5844 5843
5860 5860 5861 5861 5861 5860 5860 5860 5859 5859 5858 5857 5857 5857 5857 5857 5856 5856 5855 5855 5854 5855 5855 5854 5853 5853 5852 5851 5851 5850 5849 5847 5846 5845 5844 5843 5842 5842 5841 5840 5839 5838 5837
5853 5853 5854 5854 5854 5854 5853 5853 5853 5852 5851 5851 5851 5851 5851 5850 5850 5850 5849 5848 5848 5848 5848 5848 5847 5846 5846 5845 5844 5843 5842 5841 5840 5839 5838 5837 5836 5836 5835 5834 5833 5832 5831
5845 5845 5846 5847 5846 5846 5846 5845 5845 5845 5844 5844 5843 5843 5843 5843 5842 5842 5842 5841 5842 5841 5841 5841 5840 5840 5839 5838 5837 5836 5835 5834 5833 5833 5832 5831 5830 5829 5828 5828 5827 5826 5825
5837 5838 5838 5839 5839 5839 5839 5838 5838 5837 5837 5837 5837 5836 5836 5835 5834 5833 5834 5834 5833 5833 5833 5833 5833 5833 5832 5831 5830 5829 5828 5827 5827 5826 5825 5824 5823 5821 5821 5820 5819 5819 5817
5829 5829 5830 5830 5831 5830 5829 5829 5829 5829 5829 5829 5829 5828 5827 5826 5826 5826 5826 5826 5825 5825 5825 5824 5824 5824 5824 5823 5822 5821 5820 5819 5819 5818 5817 5816 5815 5814 5813 5812 5811 5810 5809
5820 5820 5821 5821 5822 5822 5821 5821 5820 5820 5820 5820 5820 5819 5818 5817 5816 5817 5817 5817 5817 5816 5815 5815 5815 5815 5815 5815 5814 5813 5812 5811 5810 5810 5809 5808 5807 5806 5804 5803 5803 5802 5801
5811 5811 5812 5812 5813 5813 5813 5813 5812 5812 5812 5811 5811 5810 5810 5808 5807 5807 5807 5807 5807 5807 5807 5806 5806 5806 5806 5805 5804 5803 5803 5802 5802 5801 5800 5799 5798 5797 5795 5794 5793 5793 5792
5801 5801 5801 5802 5803 5803 5803 5802 5802 5802 5802 5802 5801 5801 5800 5799 5797 5796 5796 5796 5797 5797 5797 5797 5797 5796 5796 5795 5795 5794 5794 5793 5792 5791 5791 5789 5788 5787 5786 5784 5784 5783 5782
5790 5790 5791 5791 5791 5791 5791 5792 5791 5791 5791 5791 5791 5790 5789 5788 5788 5787 5786 5786 5786 5786 5787 5787 5786 5786 5785 5785 5784 5784 5783 5783 5782 5782 5781 5779 5778 5777 5776 5774 5774 5773 5772
5778 5779 5780 5780 5780 5780 5780 5780 5780 5779 5780 5780 5780 5779 5778 5777 5776 5776 5776 5776 5776 5775 5776 5775 5775 5774 5774 5773 5773 5773 5772 5771 5771 5771 5770 5769 5768 5766 5765 5765 5764 5763 5762
5767 5767 5768 5768 5768 5768 5768 5768 5768 5768 5768 5767 5767 5766 5766 5765 5765 5764 5765 5765 5765 5764 5764 5763 5763 5763 5762 5762 5762 5761 5761 5760 5760 5760 5759 5758 5757 5756 5755 5755 5753 5752 5751
5755 5755 5755 5756 5756 5756 5756 5756 5756 5755 5755 5755 5754 5754 5754 5754 5753 5753 5753 5753 5753 5752 5752 5751 5751 5751 5751 5751 5750 5750 5750 5749 5749 5748 5748 5747 5747 5746 5745 5744 5743 5742 5740
5743 5743 5743 5743 5743 5743 5743 5743 5743 5742 5742 5742 5742 5741 5741 5742 5742 5742 5742 5742 5741 5741 5740 5739 5739 5739 5739 5739 5739 5739 5738 5738 5737 5737 5736 5736 5735 5735 5734 5733 5732 5731 5729